Probability
0 0 0 0 0 0 0 0 0 0 0 0 0 0 0 0 0 0 0 0 0 0 0 0 0 0 0 0 0 0 0 0 0 0 0 0 0 0
0 0 0 0 0 0 0 0 0 0 0 0 0 0 0 0 0 0 0 0 0 0 0 0 0 0 0 0 0 0 0 0 0 0 0 0 0 0
0 0 0 0 0 0 0 0 0 0 0 0 0 0 0 0 0 0 0 0 0 0 0 0 0 0 0 0 0 0 0 0 0 0 0 0 0 0
0 0 0 0 0 0 0 0 0 0 0 0 0 0 0 0 0 0 0 0 0 0 0 0 0 0 0 0 0 0 0 0 0 0 0 0 0 0
0 0 0 0 0 0 0 0 0 0 0 0 0 0 0 0 0 0 0 0 0 0 0 0 0 0 0 0 0 0 0 0 0 0 0 0 0 0
0 0 0 0 0 0 0 0 0 0 0 0 0 0 0 0 0 0 0 0 0 0 0 0 0 0 0 0 0 0 0 0 0 0 0 0 0 0
0 0 0 0 0 0 0 0 0 0 0 0 0 0 0 0 0 0 0 0 0 0 0 0 0 0 0 0 0 0 0 0 0 0 0 0 0 0
0 0 0 0 0 0 0 0 0 0 0 0 0 0 0 0 0 0 0 0 0 0 0 0 0 0 0 0 0 0 0 0 0 0 0 0 0 0
0 0 0 0 0 0 0 0 0 0 0 0 0 0 0 0 0 0 0 0 0 0 0 0 0 0 0 0 0 0 0 0 0 0 0 0 0 0
0 0 0 0 0 0 0 0 0 0 0 0 0 0 0 0 0 0 0 0 0 0 0 0 0 0 0 0 0 0 0 0 0 0 0 0 0 0
0 0 0 0 0 0 0 0 0 0 0 0 0 0 0 0 0 0 0 0 0 0 0 0 0 0 0 0 0 0 0 0 0 0 0 0 0 0
0 0 0 0 0 0 0 0 0 0 0 0 0 0 0 0 0 0 0 0 0 0 0 0 0 0 0 0 0 0 0 0 0 0 0 0 0 0
0 0 0 0 0 0 0 0 0 0 0 0 0 0 0 0 0 0 0 0 0 0 0 0 0 0 0 0 0 0 0 0 0 0 0 0 0 0
0 0 0 0 0 0 0 0 0 0 0 0 0 0 0 0 0 0 0 0 0 0 0 0 0 0 0 0 0 0 0 0 0 0 0 0 0 0
0 0 0 0 0 0 0 0 0 0 0 0 0 0 0 0 0 0 0 0 0 0 0 0 0 0 0 0 0 0 0 0 0 0 0 0 0 0
0 0 0 0 0 0 0 0 0 0 0 0 0 0 0 0 0 0 0 0 0 0 0 0 0 0 0 0 0 0 0 0 0 0 0 0 0 0
0 0 0 0 0 0 0 0 0 0 0 0 0 0 0 0 0 0 0 0 0 0 0 0 0 0 0 0 0 0 0 0 0 0 0 0 0 0
0 0 0 0 0 0 0 0 0 0 0 0 0 0 0 0 0 0 0 0 0 0 0 0 0 0 0 0 0 0 0 0 0 0 0 0 0 0
0 0 0 0 0 0 0 0 0 0 0 0 0 0 0 0 0 0 0 0 0 0 0 0 0 0 0 0 0 0 0 0 0 0 0 0 0 0
0 0 0 0 0 0 0 0 0 0 0 0 0 0 0 0 0 0 0 0 0 0 0 0 0 0 0 0 0 0 0 0 0 0 0 0 0 0
0 0 0 0 0 0 0 0 0 0 0 0 0 0 0 0 0 0 0 0 0 0 0 0 0 0 0 0 0 0 0 0 0 0 0 0 0 0
0 0 0 0 0 0 0 0 0 0 0 0 0 0 0 0 0 0 0 0 0 0 0 0 0 0 0 0 0 0 0 0 0 0 0 0 0 0
0 0 0 0 0 0 0 0 0 0 0 0 0 0 0 0 0 0 0 0 0 0 0 0 0 0 0 0 0 0 0 0 0 0 0 0 0 0
Height
5742 5737 5731 5725 5719 5712 5705 5698 5692 5687 5681 5670 5662 5654 5647 5639 5632 5627 5622 5619 5615 5612 5608 5605 5603 5601 5600 5599 5598 5599 5600 5601 5603 5606 5609 5613 5617 5622
5727 5722 5715 5709 5702 5695 5689 5681 5674 5668 5663 5655 5645 5637 5629 5621 5613 5607 5601 5597 5593 5590 5586 5583 5581 5580 5578 5577 5577 5577 5578 5579 5581 5583 5586 5590 5594 5599
5712 5706 5700 5694 5686 5680 5673 5666 5658 5651 5645 5638 5627 5618 5610 5603 5596 5589 5583 5578 5574 5570 5567 5565 5563 5562 5560 5560 5560 5559 5560 5560 5561 5563 5565 5568 5572 5577
5697 5691 5685 5679 5672 5665 5658 5650 5642 5634 5626 5620 5610 5601 5593 5585 5579 5573 5568 5563 5559 5556 5553 5551 5549 5548 5547 5547 5546 5545 5545 5545 5545 5546 5547 5550 5553 5556
5683 5677 5671 5664 5658 5650 5643 5635 5627 5618 5609 5602 5594 5585 5578 5571 5566 5561 5556 5552 5549 5546 5544 5542 5540 5538 5537 5536 5535 5534 5533 5533 5532 5532 5532 5533 5535 5538
5669 5663 5657 5651 5644 5636 5628 5620 5612 5603 5595 5587 5580 5574 5567 5562 5557 5553 5549 5545 5541 5538 5536 5534 5532 5530 5529 5527 5526 5524 5523 5521 5520 5520 5519 5520 5521 5524
5656 5650 5644 5638 5630 5622 5614 5606 5599 5591 5584 5577 5571 5565 5560 5555 5550 5546 5542 5538 5535 5531 5529 5527 5524 5523 5521 5519 5517 5515 5514 5512 5510 5509 5508 5508 5509 5511
5643 5637 5630 5624 5617 5610 5602 5595 5588 5582 5576 5570 5565 5559 5554 5549 5545 5540 5535 5532 5528 5525 5522 5519 5516 5514 5513 5511 5509 5507 5505 5503 5502 5500 5499 5499 5500 5501
5630 5624 5618 5611 5605 5599 5592 5586 5580 5574 5569 5564 5559 5554 5549 5544 5539 5534 5529 5525 5521 5517 5514 5511 5508 5506 5504 5502 5501 5500 5498 5496 5494 5493 5492 5491 5492 5494
5619 5613 5607 5601 5596 5590 5584 5579 5574 5569 5564 5559 5554 5549 5543 5538 5533 5528 5523 5519 5515 5511 5507 5504 5501 5499 5496 5494 5493 5492 5491 5489 5488 5487 5486 5486 5487 5488
5608 5603 5598 5593 5589 5584 5579 5575 5570 5565 5560 5554 5549 5543 5538 5532 5527 5523 5519 5514 5510 5506 5503 5499 5496 5493 5490 5488 5486 5485 5484 5483 5482 5481 5481 5481 5482 5484
5598 5594 5590 5587 5583 5579 5575 5571 5567 5562 5556 5551 5545 5539 5534 5529 5524 5520 5516 5512 5507 5504 5499 5496 5492 5488 5486 5483 5481 5479 5478 5477 5477 5476 5476 5476 5478 5480
5589 5587 5584 5581 5578 5575 5572 5568 5563 5558 5553 5548 5542 5537 5533 5528 5523 5518 5514 5510 5506 5502 5498 5493 5489 5485 5482 5479 5477 5475 5474 5473 5472 5472 5472 5473 5475 5477
5583 5581 5579 5577 5575 5572 5569 5565 5561 5556 5551 5546 5541 5536 5531 5526 5522 5517 5513 5509 5505 5500 5496 5491 5487 5483 5480 5477 5475 5473 5471 5470 5469 5469 5469 5470 5472 5475
5577 5576 5575 5574 5573 5570 5567 5563 5559 5554 5550 5545 5540 5536 5531 5526 5521 5517 5513 5509 5505 5500 5495 5490 5486 5482 5479 5476 5474 5472 5470 5468 5467 5467 5467 5469 5471 5474
5573 5574 5574 5573 5571 5569 5565 5562 5558 5554 5550 5545 5541 5536 5531 5526 5521 5517 5513 5509 5505 5501 5496 5491 5487 5483 5479 5476 5474 5472 5470 5468 5467 5466 5467 5468 5470 5473
5572 5573 5573 5572 5570 5568 5565 5562 5559 5555 5551 5546 5542 5536 5531 5526 5522 5518 5514 5510 5506 5502 5498 5493 5489 5485 5482 5479 5476 5474 5472 5469 5468 5467 5467 5468 5470 5474
5572 5573 5572 5571 5570 5568 5565 5563 5560 5557 5553 5548 5543 5538 5533 5528 5524 5520 5517 5513 5509 5505 5501 5497 5494 5490 5487 5484 5481 5478 5475 5473 5471 5470 5470 5470 5472 5475
5573 5573 5573 5572 5570 5569 5567 5565 5562 5559 5555 5551 5546 5541 5536 5532 5528 5524 5521 5517 5513 5510 5506 5502 5499 5496 5493 5491 5488 5484 5481 5478 5476 5475 5474 5474 5476 5478
5574 5574 5574 5573 5572 5571 5569 5567 5565 5562 5559 5555 5550 5546 5541 5537 5533 5529 5526 5522 5519 5516 5513 5510 5506 5503 5501 5498 5495 5492 5488 5486 5483 5482 5480 5480 5481 5483
5576 5576 5576 5575 5575 5574 5572 5571 5568 5566 5563 5559 5555 5551 5547 5543 5539 5535 5532 5529 5525 5523 5520 5517 5514 5511 5508 5506 5504 5501 5497 5494 5492 5490 5489 5489 5489 5490
5578 5578 5578 5578 5578 5577 5576 5574 5572 5570 5567 5564 5560 5557 5553 5549 5546 5542 5539 5536 5533 5530 5527 5524 5521 5519 5517 5515 5512 5509 5506 5504 5502 5500 5498 5498 5499 5500
5582 5582 5582 5582 5581 5581 5579 5578 5576 5575 5572 5570 5566 5563 5559 5556 5552 5549 5546 5543 5540 5537 5534 5531 5528 5526 5524 5522 5520 5517 5515 5514 5512 5511 5510 5509 5509 5509
Wind_Speed
57 59 60 62 63 64 64 64 65 64 63 64 65 65 66 67 68 68 67 67 66 66 66 65 65 65 65 65 65 65 65 66 66 67 68 70 71 72
59 61 62 63 63 63 63 63 64 63 62 63 65 66 67 67 67 67 66 64 63 61 60 59 59 58 57 57 57 58 59 60 61 62 64 66 68 70
61 61 62 61 61 61 61 62 62 63 63 63 65 65 65 64 63 61 59 56 54 52 50 49 47 47 47 47 47 48 49 51 53 55 58 60 63 66
60 60 60 59 59 59 60 61 62 63 63 62 61 60 59 57 54 51 48 45 42 40 38 37 36 35 36 36 36 37 39 41 44 47 50 53 56 59
58 58 57 57 57 58 59 61 61 61 60 58 54 52 49 46 43 40 37 34 32 31 29 29 29 29 29 29 30 31 32 33 36 38 41 44 47 51
55 55 55 55 56 57 58 59 58 56 52 49 45 42 39 37 34 31 29 28 28 27 26 25 26 26 26 26 26 27 28 29 30 33 35 37 40 43
53 53 54 55 56 56 55 54 51 47 43 39 35 33 32 30 29 28 27 26 26 26 26 25 25 25 25 25 25 25 26 26 27 28 30 32 34 37
51 52 53 54 53 52 50 46 42 38 33 30 29 28 28 28 28 28 28 27 26 26 26 26 26 25 25 24 24 24 24 24 24 24 25 26 28 31
51 51 51 50 48 45 41 38 34 30 28 27 27 27 27 27 27 27 27 26 26 25 25 25 25 25 25 24 24 23 22 22 21 21 21 22 23 25
49 48 46 43 39 35 33 30 28 27 28 28 28 28 28 27 26 25 24 23 23 22 22 22 22 22 22 22 22 21 21 20 20 20 19 19 20 22
45 42 38 34 30 27 25 24 25 26 27 28 28 27 26 24 22 21 20 19 19 19 18 18 18 18 18 18 18 18 19 18 17 17 17 18 19 22
38 35 31 26 23 20 20 21 23 25 26 26 25 23 21 20 19 18 16 16 16 16 17 17 16 16 15 15 14 15 15 15 16 15 15 15 17 20
30 27 24 19 17 17 18 20 22 23 23 21 19 19 19 18 17 15 15 15 15 15 16 16 15 14 13 12 12 12 12 12 12 12 13 13 15 17
24 21 17 13 13 15 18 20 20 20 18 17 17 17 17 16 15 14 14 14 15 15 16 15 14 13 11 11 10 9 8 9 9 10 10 12 14 16
17 13 10 9 11 14 16 17 17 16 15 16 16 16 17 16 15 14 14 14 16 16 15 15 14 12 11 9 8 6 6 5 6 7 8 10 13 15
8 6 6 8 10 12 13 13 13 13 14 15 15 16 16 16 15 15 14 14 15 15 15 14 14 12 10 9 8 7 6 4 2 2 5 8 12 15
3 2 3 6 8 10 10 11 12 13 14 16 16 17 17 16 15 15 15 15 16 16 15 15 15 14 14 13 12 11 10 8 5 3 4 7 10 15
3 1 3 5 7 9 10 11 12 14 16 17 18 19 18 17 16 16 16 17 17 17 17 17 18 18 18 18 17 16 15 14 12 9 7 8 10 13
5 4 5 7 8 9 11 12 14 15 17 18 20 21 21 20 19 18 19 19 20 20 21 21 21 22 21 21 20 21 21 21 19 15 13 11 11 12
7 7 8 9 10 11 12 14 15 17 18 20 22 23 23 22 22 21 21 21 22 22 23 23 23 23 23 23 23 24 25 25 23 21 19 17 15 15
9 9 10 11 12 13 14 15 17 19 21 22 24 25 25 25 24 24 23 23 23 23 22 23 24 25 24 24 23 25 26 27 27 26 24 22 20 19
11 11 12 13 14 14 15 16 18 20 22 24 25 25 25 25 25 25 24 24 24 23 23 23 23 24 23 23 23 24 26 27 28 28 27 26 24 22
12 13 13 14 14 15 15 17 18 20 21 23 25 26 27 26 26 26 25 24 24 23 23 23 23 22 22 22 22 23 24 25 25 25 25 25 25 23
Wind_Direction
294 294 295 296 297 297 297 297 297 297 296 295 294 293 292 291 290 289 288 287 285 283 281 279 277 276 274 272 270 268 265 263 261 259 256 254 252 249
294 295 296 297 298 298 298 298 298 298 297 296 295 294 293 292 292 291 290 289 287 285 282 280 278 276 274 272 270 268 265 263 261 258 256 253 250 248
294 296 297 298 298 298 299 299 298 298 298 298 297 296 295 294 293 293 291 290 288 286 283 280 277 275 272 271 270 268 267 265 262 259 256 254 251 248
295 296 297 298 299 299 300 299 300 300 301 300 300 299 298 297 296 295 293 291 289 287 285 282 279 277 274 274 273 271 270 267 264 260 258 255 252 248
296 297 298 299 300 300 301 301 302 303 303 303 303 301 300 300 299 298 296 294 291 289 287 285 282 280 278 277 276 274 273 271 267 264 261 257 253 249
297 298 299 300 301 302 303 304 305 306 306 306 305 304 304 303 303 301 298 296 294 292 290 287 284 283 282 281 280 278 276 274 270 267 263 258 253 248
298 299 300 302 303 305 306 307 307 308 308 308 308 307 307 306 305 304 301 299 296 294 292 289 286 284 282 282 282 281 279 277 274 270 265 259 253 247
300 302 303 304 306 307 308 308 309 310 311 311 311 310 308 307 306 304 302 300 296 294 292 290 287 284 282 281 281 283 282 279 277 272 266 259 252 244
301 303 305 307 308 309 309 310 311 313 314 314 313 312 310 308 307 306 304 302 300 297 295 293 290 286 283 281 279 280 280 279 276 273 265 257 247 239
303 304 306 307 308 309 309 310 312 314 315 316 316 316 314 313 311 311 309 308 307 305 302 298 294 290 286 283 281 278 276 276 274 270 264 253 241 231
304 305 306 307 308 308 309 310 312 314 316 318 319 320 320 320 319 319 318 317 317 315 313 310 305 301 294 288 282 277 274 273 272 267 259 249 236 227
303 304 305 306 307 307 309 312 315 318 320 323 325 328 329 330 329 329 328 328 329 328 325 321 317 311 304 297 289 281 275 271 269 265 256 245 233 225
301 303 305 306 306 309 312 316 319 323 326 329 332 334 335 336 337 339 340 339 338 336 335 331 327 321 312 304 297 288 279 271 265 259 249 240 227 217
298 299 301 301 306 313 318 323 327 332 337 340 341 341 342 342 342 344 346 346 344 342 342 341 338 335 328 319 310 303 292 275 264 255 243 230 219 210
293 293 293 299 311 319 326 331 338 344 349 350 350 347 346 346 347 349 351 352 353 354 353 353 352 350 346 340 333 328 320 299 273 252 232 217 207 202
277 277 288 306 320 329 338 347 355 359 359 359 357 355 354 354 357 0 0 1 3 3 4 7 9 10 13 15 16 15 11 3 336 244 212 202 196 193
212 238 306 327 341 352 2 12 16 15 14 11 9 6 7 8 10 13 16 18 19 21 23 26 31 38 42 44 46 46 44 43 50 87 142 168 179 184
140 101 18 10 16 23 29 33 32 30 28 25 23 22 23 25 29 33 34 35 36 38 41 46 50 53 55 56 55 58 58 59 64 77 102 132 155 171
108 77 52 45 47 47 48 46 44 40 36 34 34 37 38 42 46 48 48 49 52 54 55 58 60 61 61 62 65 67 67 67 69 74 88 103 124 144
91 76 68 64 62 61 59 56 52 48 45 44 45 46 48 52 55 57 57 58 61 62 62 64 66 67 67 67 69 70 70 70 71 75 82 90 101 117
87 83 77 73 70 69 65 63 60 56 53 52 52 53 55 58 59 60 62 63 64 65 67 67 68 68 69 69 70 72 72 72 72 75 79 85 93 102
90 87 82 79 76 73 70 68 64 61 58 56 57 58 58 59 60 61 63 65 66 67 68 68 68 69 70 71 73 74 74 74 74 76 80 83 88 95
94 90 88 84 80 76 74 72 68 64 61 60 59 59 60 60 60 60 62 63 64 65 66 67 69 71 71 72 73 74 74 75 76 78 82 85 89 94